Location: East Arcadia
(34.1056°N, 118.0176°W)
Time: 01:54:13
(UTC+00:00)

ARIANE 5 R/B - Pass Details

Date: 01 April 2023
Orbit: 747 x 794 km, 98.8° (Epoch: 08 June)

Event Time Altitude Azimuth Distance (km) Brightness Sun altitude
Rises 12:47:08 0° 1° (N) 3,284 6.0 -11.5°
Reaches altitude 10° 12:49:38 10° 353° (N) 2,357 5.1 -11.0°
Maximum altitude 12:54:15 33° 290° (WNW) 1,302 3.3 -10.1°
Drops below altitude 10° 12:58:53 10° 227° (SW) 2,356 4.5 -9.1°
Enters shadow 13:00:20 - 221° (SW) 2,884 5.0 -8.9°
